Date String (YYYY-MM-DD hh:mm:ss) UTC,Instrument flags,Ambient pressure (hPa),Sample flow (lpm),Bypass flow (lpm),Sample temperature (°C),Ambient temperature (°C),ASC tube jacket temperature (°C),LED temperature (°C),Box temperature (°C),Sample RH (%),Span deviation,Mass concentration (μg/m³),Mass concentration (μg/m³),Mass concentration (μg/m³)
DateTimeUTC,F1_M11,P_M11,Q1_M11,Q2_M11,T1_M11,T2_M11,T3_M11,T4_M11,T5_M11,U1_M11,ZSPAN_M11,X0_M11,X2_M11,X1_M11
2023-01-01 15:00:00,,0818.7,5.01,0.00,22.6,21.2,00.0,31.4,24.3,15.0,0000.1,0013.02,0008.51,0007.90
2023-01-01 15:01:00,,0818.7,5.03,0.00,22.5,21.2,00.0,31.4,24.3,15.0,0000.6,0013.05,0008.52,0007.89
2023-01-01 15:02:00,,0818.7,5.02,0.00,22.5,21.2,00.0,31.4,24.3,15.0,0000.6,0013.70,0008.55,0007.89
2023-01-01 15:03:00,,0818.7,4.99,0.00,22.5,21.2,00.0,31.4,24.3,14.9,0000.8,0013.69,0008.49,0007.86
2023-01-01 15:04:00,,0818.7,4.97,0.00,22.5,21.2,00.0,31.3,24.3,14.9,0000.8,0013.51,0008.39,0007.80
2023-01-01 15:05:00,,0818.7,5.01,0.00,22.5,21.2,00.0,31.3,24.3,14.9,0001.1,0013.27,0008.30,0007.75
2023-01-01 15:06:00,,0818.7,5.03,0.00,22.5,21.1,00.0,31.3,24.2,14.9,0001.6,0013.06,0008.22,0007.70
2023-01-01 15:07:00,,0818.8,5.00,0.00,22.5,21.1,00.0,31.3,24.3,14.9,0001.3,0012.97,0008.18,0007.64
2023-01-01 15:08:00,,0818.7,5.01,0.00,22.5,21.2,00.0,31.3,24.2,14.9,0001.4,0012.65,0008.11,0007.60
2023-01-01 15:09:00,,0818.8,4.97,0.00,22.4,21.2,00.0,31.3,24.2,14.9,0001.5,0012.43,0008.06,0007.54
2023-01-01 15:10:00,,0818.8,4.94,0.00,22.4,21.1,00.0,31.3,24.2,14.9,0001.6,0012.41,0007.99,0007.48
2023-01-01 15:11:00,,0818.7,5.01,0.00,22.4,21.2,00.0,31.3,24.2,14.9,0001.4,0011.88,0007.92,0007.42
2023-01-01 15:12:00,,0818.7,5.02,0.00,22.4,21.2,00.0,31.3,24.2,14.9,0000.9,0011.77,0007.84,0007.37
2023-01-01 15:13:00,,0818.7,5.06,0.00,22.4,21.2,00.0,31.3,24.2,14.9,0000.5,0011.17,0007.82,0007.37
2023-01-01 15:14:00,,0818.7,4.99,0.00,22.4,21.2,00.0,31.3,24.2,14.9,0000.2,0011.12,0007.88,0007.42
2023-01-01 15:15:00,,0818.7,4.98,0.00,22.4,21.2,00.0,31.3,24.2,14.9,0000.3,0011.33,0008.02,0007.51
2023-01-01 15:16:00,,0818.7,5.00,0.00,22.4,21.2,00.0,31.3,24.2,14.8,0000.1,0011.43,0008.05,0007.53
2023-01-01 15:17:00,,0818.7,5.02,0.00,22.4,21.2,00.0,31.3,24.2,14.8,-000.1,0011.40,0008.04,0007.53
2023-01-01 15:18:00,,0818.8,5.05,0.00,22.4,21.2,00.0,31.3,24.2,14.8,-000.3,0011.43,0008.06,0007.53
2023-01-01 15:19:00,,0818.8,4.98,0.00,22.4,21.2,00.0,31.3,24.2,14.8,-000.2,0011.56,0008.11,0007.55
2023-01-01 15:20:00,,0818.8,4.98,0.00,22.4,21.2,00.0,31.3,24.2,14.8,0000.1,0011.65,0008.15,0007.56
2023-01-01 15:21:00,,0818.7,5.04,0.00,22.4,21.2,00.0,31.3,24.2,14.9,0000.6,0012.90,0008.12,0007.53
2023-01-01 15:22:00,,0818.7,4.98,0.00,22.4,21.2,00.0,31.3,24.2,14.9,0001.0,0013.73,0008.14,0007.53
2023-01-01 15:23:00,,0818.8,5.00,0.00,22.4,21.2,00.0,31.3,24.2,14.9,0001.3,0013.95,0008.18,0007.49
2023-01-01 15:24:00,,0818.8,5.05,0.00,22.4,21.2,00.0,31.3,24.3,14.9,0001.4,0014.44,0008.20,0007.44
2023-01-01 15:25:00,,0818.8,5.04,0.00,22.4,21.2,00.0,31.3,24.2,14.9,0002.0,0015.38,0008.17,0007.38
2023-01-01 15:26:00,,0818.8,4.98,0.00,22.4,21.2,00.0,31.3,24.2,14.9,0002.0,0016.37,0008.14,0007.36
2023-01-01 15:27:00,,0818.8,5.05,0.00,22.4,21.2,00.0,31.3,24.2,14.9,0002.0,0017.04,0008.22,0007.37
2023-01-01 15:28:00,,0818.8,5.04,0.00,22.4,21.2,00.0,31.3,24.3,14.8,0002.1,0017.29,0008.25,0007.34
2023-01-01 15:29:00,,0818.8,4.96,0.00,22.4,21.2,00.0,31.3,24.3,14.8,0002.5,0017.30,0008.22,0007.30
2023-01-01 15:30:00,,0818.8,5.03,0.00,22.4,21.1,00.0,31.3,24.3,14.9,0002.9,0017.75,0008.19,0007.30
2023-01-01 15:31:00,,0818.9,5.02,0.00,22.4,21.1,00.0,31.3,24.2,15.0,0002.9,0018.82,0008.18,0007.31
2023-01-01 15:32:00,,0819.0,4.98,0.00,22.4,21.1,00.0,31.3,24.3,15.0,0002.5,0018.39,0008.25,0007.35
2023-01-01 15:33:00,,0819.0,4.97,0.00,22.4,21.1,00.0,31.3,24.3,15.0,0002.0,0017.75,0008.28,0007.36
2023-01-01 15:34:00,,0818.8,5.03,0.00,22.4,21.1,00.0,31.3,24.3,14.9,0001.7,0017.77,0008.27,0007.38
2023-01-01 15:35:00,,0818.9,5.04,0.00,22.4,21.1,00.0,31.3,24.3,14.8,0002.0,0017.38,0008.22,0007.39
2023-01-01 15:36:00,,0818.9,4.97,0.00,22.4,21.1,00.0,31.3,24.3,14.6,0001.6,0016.59,0008.10,0007.29
2023-01-01 15:37:00,,0819.0,4.97,0.00,22.4,21.1,00.0,31.3,24.3,14.7,0001.6,0015.50,0007.98,0007.17
2023-01-01 15:38:00,,0819.0,5.01,0.00,22.4,21.1,00.0,31.3,24.3,14.8,0001.8,0015.00,0007.94,0007.15
2023-01-01 15:39:00,,0818.9,5.01,0.00,22.4,21.1,00.0,31.3,24.2,14.8,0001.6,0014.91,0007.96,0007.18
2023-01-01 15:40:00,,0819.0,4.96,0.00,22.4,21.1,00.0,31.3,24.2,14.8,0001.6,0014.98,0008.02,0007.22
2023-01-01 15:41:00,,0819.0,4.97,0.00,22.4,21.1,00.0,31.3,24.2,14.8,0001.5,0014.54,0008.03,0007.23
2023-01-01 15:42:00,,0818.9,5.05,0.00,22.4,21.1,00.0,31.3,24.2,14.8,0000.6,0014.14,0008.05,0007.20
2023-01-01 15:43:00,,0818.9,5.00,0.00,22.4,21.1,00.0,31.3,24.2,14.9,0000.7,0013.47,0007.98,0007.15
2023-01-01 15:44:00,,0818.9,4.99,0.00,22.4,21.1,00.0,31.3,24.2,14.8,0001.1,0013.23,0007.91,0007.09
2023-01-01 15:45:00,,0818.9,5.01,0.00,22.4,21.1,00.0,31.3,24.2,14.8,0001.1,0013.08,0007.85,0007.06
2023-01-01 15:46:00,,0819.0,4.98,0.00,22.4,21.1,00.0,31.3,24.2,14.8,0001.3,0012.95,0007.80,0007.03
2023-01-01 15:47:00,,0819.0,5.03,0.00,22.4,21.1,00.0,31.3,24.2,14.7,0001.1,0012.56,0007.77,0007.05
2023-01-01 15:48:00,,0818.9,5.04,0.00,22.4,21.1,00.0,31.3,24.2,14.7,0001.3,0013.19,0007.78,0007.11
2023-01-01 15:49:00,,0818.9,4.96,0.00,22.4,21.1,00.0,31.3,24.2,14.7,0001.2,0013.66,0007.69,0007.06
2023-01-01 15:50:00,,0818.9,4.97,0.00,22.4,21.1,00.0,31.3,24.2,14.6,0001.7,0013.67,0007.60,0007.00
2023-01-01 15:51:00,,0818.9,5.00,0.00,22.4,21.1,00.0,31.3,24.2,14.6,0001.2,0013.47,0007.45,0006.90
2023-01-01 15:52:00,,0818.9,5.00,0.00,22.4,21.1,00.0,31.3,24.2,14.5,0001.3,0013.35,0007.34,0006.79
2023-01-01 15:53:00,,0818.9,4.99,0.00,22.4,21.1,00.0,31.3,24.1,14.5,0002.1,0012.56,0007.21,0006.70
2023-01-01 15:54:00,,0819.0,4.99,0.00,22.4,21.0,00.0,31.3,24.1,14.6,0001.8,0012.81,0007.17,0006.65
2023-01-01 15:55:00,,0819.0,5.02,0.00,22.4,21.0,00.0,31.3,24.1,14.6,0001.3,0013.06,0007.14,0006.61
2023-01-01 15:56:00,,0819.0,4.97,0.00,22.4,21.0,00.0,31.3,24.1,14.7,0001.5,0013.11,0007.10,0006.57
2023-01-01 15:57:00,,0819.0,4.97,0.00,22.4,21.0,00.0,31.3,24.1,14.8,0001.1,0013.13,0007.14,0006.58
2023-01-01 15:58:00,,0819.0,4.98,0.00,22.4,21.0,00.0,31.3,24.1,14.8,0001.5,0013.60,0007.22,0006.62
2023-01-01 15:59:00,,0819.1,4.98,0.00,22.4,21.0,00.0,31.2,24.1,14.8,0001.6,0013.31,0007.27,0006.67
